DW5868 Weather Reports


time (UTC)temp
F
wind
direction
speed
knots
gust
knots
rain 1hr
in
rain 24hr
in
rain mn
in
humidity
%
barometer
mb
20260906074544 48 163 5.2 20.0 0.00 0.00 0.00 54 1009.4
20260906073032 48 336 8.7 17.4 0.00 0.00 0.00 53 1009.6
20260906071533 48 262 5.2 20.0 0.00 0.00 0.00 51 1009.3
20260906070032 48 256 8.7 18.2 0.00 0.00 0.00 52 1009.1
20260906064534 49 267 7.8 22.6 0.00 0.00 0.00 53 1009.1
20260906063032 49 250 7.0 19.1 0.00 0.00 0.00 53 1009.0
20260906061540 48 286 5.2 19.1 0.00 0.00 0.00 57 1009.0
20260906060032 48 153 5.2 20.0 0.00 0.00 0.00 60 1009.2
20260906054531 48 269 4.3 17.4 0.00 0.00 0.00 60 1009.1
20260906053033 48 222 7.0 22.6 0.00 0.00 0.00 61 1009.3
20260906051536 48 289 7.8 20.0 0.00 0.00 0.00 62 1009.1
20260906050030 49 246 7.8 24.3 0.00 0.00 0.00 61 1009.1
20260906044529 49 275 7.8 20.9 0.00 0.00 0.00 60 1009.4
20260906043033 49 257 6.1 16.5 0.00 0.00 0.00 62 1009.1
20260906041543 49 257 7.0 28.7 0.00 0.00 0.00 60 1009.3
20260906040033 49 256 7.0 20.0 0.00 0.00 0.00 61 1008.9
20260906034535 50 161 5.2 15.6 0.00 0.00 0.00 61 1009.1
20260906033030 50 93 6.1 13.9 0.00 0.00 0.00 60 1008.8
20260906031535 50 252 4.3 23.5 0.00 0.00 0.00 60 1008.5
20260906030034 50 173 3.5 12.2 0.00 0.00 0.00 61 1008.9
20260906024528 51 336 3.5 18.2 0.00 0.00 0.00 60 1008.7
20260906023027 51 257 3.5 12.2 0.00 0.00 0.00 61 1008.7
20260906021528 51 231 5.2 16.5 0.00 0.00 0.00 60 1008.6
20260906020027 52 271 3.5 14.8 0.00 0.00 0.00 59 1008.7
20260906014541 53 207 2.6 14.8 0.00 0.00 0.00 58 1008.5
20260906013027 54 272 3.5 20.9 0.00 0.00 0.00 57 1008.7
20260906011526 55 259 4.3 17.4 0.00 0.00 0.00 54 1008.5
20260906010053 56 163 3.5 19.1 0.00 0.00 0.00 52 1008.6
20260906004524 57 263 3.5 18.2 0.00 0.00 0.00 52 1008.5
20260906003025 57 229 5.2 13.9 0.00 0.00 0.00 51 1008.4
20260906001536 58 278 4.3 16.5 0.00 0.00 0.00 51 1008.5
20260906000023 58 270 5.2 15.6 0.00 0.00 0.00 50 1008.2
20260905234522 59 312 5.2 16.5 0.00 0.00 0.00 50 1008.2
20260905233022 59 224 5.2 14.8 0.00 0.00 0.00 50 1008.1
20260905231536 59 273 6.1 15.6 0.00 0.00 0.00 49 1008.3
20260905230022 59 84 6.1 18.2 0.00 0.00 0.00 49 1008.3
20260905224526 59 38 5.2 20.9 0.00 0.00 0.00 48 1008.3
20260905223033 59 215 6.1 20.0 0.00 0.00 0.00 47 1008.4
20260905221520 60 172 3.5 23.5 0.00 0.00 0.00 46 1008.4
20260905220025 61 255 5.2 13.9 0.00 0.00 0.00 45 1008.5
20260905214519 61 260 5.2 13.9 0.00 0.00 0.00 44 1008.7
20260905213021 60 253 6.1 17.4 0.00 0.00 0.00 46 1008.9
20260905211535 62 281 6.1 21.7 0.00 0.00 0.00 41 1008.8
20260905210020 62 272 5.2 16.5 0.00 0.00 0.00 40 1008.8
20260905204524 62 300 6.1 18.2 0.00 0.00 0.00 40 1008.8
20260905203033 62 277 5.2 13.9 0.00 0.00 0.00 40 1008.7
20260905201525 62 273 4.3 12.2 0.00 0.00 0.00 41 1009.0
20260905200015 61 302 5.2 15.6 0.00 0.00 0.00 42 1008.9
20260905194514 62 223 4.3 14.8 0.00 0.00 0.00 40 1009.0
20260905193021 63 240 6.1 19.1 0.00 0.00 0.00 36 1009.2
20260905191523 63 257 2.6 11.3 0.00 0.00 0.00 33 1009.1
20260905190012 63 165 1.7 7.8 0.00 0.00 0.00 34 1009.4
20260905184512 63 278 0.9 13.9 0.00 0.00 0.00 34 1009.6
20260905183011 62 253 6.1 12.2 0.00 0.00 0.00 32 1009.6
20260905181511 63 328 5.2 10.4 0.00 0.00 0.00 29 1009.6
20260905180008 62 277 2.6 10.4 0.00 0.00 0.00 30 1009.5
20260905174506 61 58 2.6 7.0 0.00 0.00 0.00 33 1009.5
20260905173005 61 228 2.6 7.8 0.00 0.00 0.00 33 1009.6
20260905171504 59 65 0.9 6.1 0.00 0.00 0.00 35 1009.6
20260905170002 58 135 1.7 4.3 0.00 0.00 0.00 38 1009.7
20260905164501 57 275 0.9 5.2 0.00 0.00 0.00 34 1009.5
20260905163059 57 280 1.7 7.8 0.00 0.00 0.00 34 1009.4
20260905161558 56 74 4.3 7.8 0.00 0.00 0.00 42 1009.4
20260905160057 54 130 2.6 7.8 0.00 0.00 0.00 43 1009.5
20260905154556 54 58 0.9 4.3 0.00 0.00 0.00 45 1009.6
20260905153053 53 229 0.0 3.5 0.00 0.00 0.00 47 1009.4
20260905151551 52 115 0.9 4.3 0.00 0.00 0.00 47 1009.4
20260905150052 51 68 1.7 13.0 0.00 0.00 0.00 47 1009.1
20260905144546 49 247 4.3 13.0 0.00 0.00 0.00 43 1009.0
20260905143041 49 284 5.2 16.5 0.00 0.00 0.00 45 1009.0
20260905141540 48 273 6.1 20.0 0.00 0.00 0.00 48 1008.7
20260905140045 47 241 6.1 20.0 0.00 0.00 0.00 48 1008.3
20260905134541 0 0.0 0.0 0.00 0.00 0.00 1008.2
20260905133029 0 0.0 0.0 0.00 0.00 0.00 1008.0
20260905131530 0 0.0 0.0 0.00 0.00 0.00 1007.9
20260905130035 0 0.0 0.0 0.00 0.00 0.00 1008.1
20260905124523 0 0.0 0.0 0.00 0.00 0.00 1008.1
20260905123016 0 0.0 0.0 0.00 0.00 0.00 1008.1
20260905121510 0 0.0 0.0 0.00 0.00 0.00 1008.2
20260905120006 0 0.0 0.0 0.00 0.00 0.00 1008.5
20260905114504 45 277 4.3 13.9 0.00 0.00 0.00 58 1008.7
20260905113003 46 263 6.1 22.6 0.00 0.00 0.00 58 1008.7
20260905111503 46 227 6.1 15.6 0.00 0.00 0.00 61 1008.6
20260905110003 46 256 4.3 20.9 0.00 0.00 0.00 61 1008.7
20260905104613 46 275 5.2 13.9 0.00 0.00 0.00 61 1008.5
20260905103100 46 214 5.2 13.0 0.00 0.00 0.00 59 1008.6
20260905101604 47 269 5.2 23.5 0.00 0.00 0.00 55 1008.7
20260905100105 47 317 4.3 13.0 0.00 0.00 0.00 57 1008.7
20260905094555 46 267 2.6 13.0 0.00 0.00 0.00 61 1008.7
20260905093054 46 271 5.2 12.2 0.00 0.00 0.00 63 1008.7
20260905091553 46 256 6.1 14.8 0.00 0.00 0.00 63 1008.8
20260905090114 46 273 5.2 19.1 0.00 0.00 0.00 62 1009.0
20260905084550 46 265 4.3 14.8 0.00 0.00 0.00 66 1009.0
20260905083047 46 282 5.2 16.5 0.00 0.00 0.00 67 1008.8
20260905081546 46 168 5.2 17.4 0.00 0.00 0.00 70 1009.0
20260905080044 45 275 7.0 20.0 0.00 0.00 0.00 73 1009.0